| time (UTC) | temp F | wind direction | speed knots | gust knots | rain 1hr in | rain 24hr in | rain mn in | humidity % | barometer mb |
| 20260504024550 | 50 | 0 | 0.0 | 0.0 | 0.00 | 0.00 | 0.00 | 75 | 1013.8 |
| 20260504023048 | 50 | 0 | 0.0 | 0.0 | 0.00 | 0.00 | 0.00 | 72 | 1014.0 |
| 20260504021554 | 51 | 0 | 0.0 | 0.0 | 0.00 | 0.00 | 0.00 | 71 | 1014.0 |
| 20260504020053 | 52 | 0 | 0.0 | 0.0 | 0.00 | 0.00 | 0.00 | 69 | 1014.0 |
| 20260504014556 | 53 | 0 | 0.0 | 0.0 | 0.00 | 0.00 | 0.00 | 64 | 1013.8 |
| 20260504013103 | 54 | 0 | 0.0 | 0.0 | 0.00 | 0.00 | 0.00 | 64 | 1013.5 |
| 20260504011549 | 55 | 0 | 0.0 | 0.0 | 0.00 | 0.00 | 0.00 | 60 | 1013.1 |
| 20260504010104 | 57 | 0 | 0.0 | 0.9 | 0.00 | 0.00 | 0.00 | 57 | 1013.3 |
| 20260504004550 | 58 | 0 | 0.0 | 0.9 | 0.00 | 0.00 | 0.00 | 55 | 1013.0 |
| 20260504003051 | 59 | 0 | 0.0 | 3.5 | 0.00 | 0.00 | 0.00 | 52 | 1012.9 |
| 20260504001551 | 61 | 0 | 0.0 | 3.5 | 0.00 | 0.00 | 0.00 | 50 | 1012.9 |
| 20260504000049 | 62 | 154 | 1.7 | 11.3 | 0.00 | 0.00 | 0.00 | 47 | 1013.1 |
| 20260503234550 | 63 | 150 | 3.5 | 10.4 | 0.00 | 0.00 | 0.00 | 46 | 1013.2 |
| 20260503233053 | 63 | 309 | 2.6 | 7.0 | 0.00 | 0.00 | 0.00 | 47 | 1013.1 |
| 20260503231544 | 63 | 128 | 1.7 | 9.6 | 0.00 | 0.00 | 0.00 | 47 | 1013.3 |
| 20260503230048 | 63 | 165 | 5.2 | 13.9 | 0.00 | 0.00 | 0.00 | 44 | 1013.6 |
| 20260503224544 | 64 | 232 | 2.6 | 7.8 | 0.00 | 0.00 | 0.00 | 45 | 1014.0 |
| 20260503223048 | 64 | 176 | 2.6 | 11.3 | 0.00 | 0.00 | 0.00 | 45 | 1014.2 |
| 20260503221555 | 64 | 262 | 2.6 | 9.6 | 0.00 | 0.00 | 0.00 | 44 | 1014.2 |
| 20260503220101 | 64 | 269 | 4.3 | 10.4 | 0.00 | 0.00 | 0.00 | 45 | 1014.6 |
| 20260503214546 | 64 | 158 | 2.6 | 9.6 | 0.00 | 0.00 | 0.00 | 43 | 1015.0 |
| 20260503213048 | 64 | 282 | 6.1 | 12.2 | 0.00 | 0.00 | 0.00 | 43 | 1015.1 |
| 20260503211542 | 63 | 99 | 1.7 | 9.6 | 0.00 | 0.00 | 0.00 | 43 | 1014.8 |
| 20260503210054 | 63 | 201 | 2.6 | 11.3 | 0.00 | 0.00 | 0.00 | 41 | 1015.3 |
| 20260503204602 | 64 | 207 | 4.3 | 11.3 | 0.00 | 0.00 | 0.00 | 41 | 1015.5 |
| 20260503203058 | 63 | 273 | 2.6 | 8.7 | 0.00 | 0.00 | 0.00 | 40 | 1015.4 |
| 20260503201551 | 63 | 259 | 3.5 | 12.2 | 0.00 | 0.00 | 0.00 | 42 | 1015.9 |
| 20260503200050 | 63 | 165 | 4.3 | 12.2 | 0.00 | 0.00 | 0.00 | 40 | 1016.3 |
| 20260503194608 | 63 | 179 | 3.5 | 11.3 | 0.00 | 0.00 | 0.00 | 40 | 1016.9 |
| 20260503193050 | 62 | 214 | 5.2 | 12.2 | 0.00 | 0.00 | 0.00 | 43 | 1017.1 |
| 20260503191601 | 62 | 205 | 3.5 | 12.2 | 0.00 | 0.00 | 0.00 | 40 | 1017.2 |
| 20260503190058 | 62 | 260 | 3.5 | 12.2 | 0.00 | 0.00 | 0.00 | 42 | 1017.6 |
| 20260503184554 | 62 | 176 | 2.6 | 11.3 | 0.00 | 0.00 | 0.00 | 41 | 1017.7 |
| 20260503183057 | 61 | 293 | 1.7 | 9.6 | 0.00 | 0.00 | 0.00 | 40 | 1018.0 |
| 20260503181552 | 61 | 5 | 3.5 | 8.7 | 0.00 | 0.00 | 0.00 | 40 | 1018.2 |
| 20260503180105 | 61 | 197 | 3.5 | 7.0 | 0.00 | 0.00 | 0.00 | 40 | 1018.4 |
| 20260503174551 | 60 | 184 | 2.6 | 7.0 | 0.00 | 0.00 | 0.00 | 41 | 1018.6 |
| 20260503173139 | 59 | 211 | 2.6 | 9.6 | 0.00 | 0.00 | 0.00 | 45 | 1018.7 |
| 20260503171549 | 60 | 263 | 2.6 | 8.7 | 0.00 | 0.00 | 0.00 | 41 | 1019.0 |
| 20260503081556 | 34 | 0 | 0.0 | 0.0 | 0.00 | 0.00 | 0.00 | 96 | 1019.2 |
| 20260503071551 | 35 | 0 | 0.0 | 0.0 | 0.00 | 0.00 | 0.00 | 95 | 1018.9 |
| 20260503054549 | 37 | 0 | 0.0 | 0.0 | 0.00 | 0.00 | 0.00 | 94 | 1018.9 |
| 20260503053052 | 37 | 0 | 0.0 | 0.0 | 0.00 | 0.00 | 0.00 | 93 | 1018.9 |
| 20260503051550 | 37 | 0 | 0.0 | 0.0 | 0.00 | 0.00 | 0.00 | 93 | 1018.9 |
| 20260503050046 | 38 | 0 | 0.0 | 0.0 | 0.00 | 0.00 | 0.00 | 92 | 1019.0 |
| 20260503044548 | 38 | 0 | 0.0 | 0.0 | 0.00 | 0.00 | 0.00 | 92 | 1018.9 |
| 20260503043049 | 38 | 0 | 0.0 | 0.0 | 0.00 | 0.00 | 0.00 | 91 | 1018.9 |
| 20260503041552 | 39 | 0 | 0.0 | 0.0 | 0.00 | 0.00 | 0.00 | 89 | 1018.7 |
| 20260503040049 | 40 | 0 | 0.0 | 0.0 | 0.00 | 0.00 | 0.00 | 88 | 1018.6 |
| 20260503034549 | 41 | 0 | 0.0 | 0.0 | 0.00 | 0.00 | 0.00 | 88 | 1018.6 |
| 20260503033050 | 41 | 0 | 0.0 | 0.9 | 0.00 | 0.00 | 0.00 | 90 | 1018.6 |
| 20260503031601 | 41 | 0 | 0.0 | 0.9 | 0.00 | 0.00 | 0.00 | 88 | 1018.4 |
| 20260503030050 | 41 | 0 | 0.0 | 0.0 | 0.00 | 0.00 | 0.00 | 86 | 1018.3 |